Theta_e
290 290 291 291 291 291 290 290 291 291 291 291 290 290 291 291 291 291 291 292 292 292 293 293 294 294 294 295 295 295 296 296 297 299 300 301 302 304 305 307 306 306 305 304 303 303 302 302 302 303 303 301 301 300 299 299 299 299 299 299 299 298 298 299 299 298 298 298 299
289 289 290 291 291 290 290 290 290 290 291 291 291 291 291 291 291 290 291 291 291 292 292 292 293 293 293 294 294 294 295 295 296 298 299 300 302 303 304 306 306 306 305 304 303 302 302 301 302 302 301 300 299 299 298 298 299 299 299 298 298 298 298 298 298 298 297 297 297
288 288 289 289 289 289 289 289 289 289 289 290 290 290 290 290 290 290 290 290 291 291 291 292 292 292 292 293 293 294 294 295 296 297 299 300 302 303 304 305 305 306 305 305 304 303 302 301 301 301 301 299 299 298 298 297 298 299 298 298 298 299 299 299 298 297 297 297 296
288 288 288 288 288 288 288 289 289 289 289 290 290 290 290 290 290 290 290 290 290 290 291 291 291 292 293 293 293 294 295 296 297 298 299 300 301 302 304 305 305 306 306 305 304 303 302 301 302 301 299 297 297 297 297 297 297 298 298 298 298 299 299 299 299 299 298 297 295
287 287 288 288 288 288 288 289 288 289 289 289 289 289 289 290 290 290 290 290 290 290 291 291 292 292 293 294 294 294 295 296 297 298 299 300 301 302 303 304 305 305 306 306 305 303 302 301 301 300 298 297 297 297 296 296 297 297 297 298 298 298 298 298 299 299 298 298 296
287 287 288 288 288 288 288 288 288 288 289 289 289 289 289 289 289 289 289 289 290 290 291 292 292 293 293 294 294 295 295 296 297 297 298 299 301 302 303 303 304 304 305 305 305 304 302 301 302 300 298 297 297 296 297 297 297 297 297 298 298 298 298 298 298 298 297 297 297
287 287 287 287 287 288 288 288 288 288 289 289 288 288 288 289 289 289 289 290 290 290 291 292 292 292 293 293 293 294 294 295 296 297 297 298 300 302 302 302 302 303 304 305 304 304 302 302 302 301 299 299 298 296 296 297 297 297 297 297 298 298 298 297 297 297 297 297 296
287 287 287 287 288 288 288 288 288 288 288 288 288 288 288 288 288 289 289 289 290 290 291 291 291 291 291 292 292 293 293 294 295 296 297 298 300 301 302 302 301 301 302 303 304 303 303 302 302 301 299 298 297 296 296 296 296 296 296 296 297 297 297 297 297 297 297 297 296
286 286 287 287 287 287 288 288 288 288 288 288 288 288 288 288 289 289 289 289 289 290 290 290 290 291 291 291 292 292 293 294 295 296 297 298 300 301 301 301 300 300 300 301 303 303 302 302 302 301 300 298 297 296 296 296 296 295 295 296 296 296 296 296 296 296 297 296 296
286 286 286 287 287 287 288 288 288 288 288 287 288 288 288 289 289 289 289 289 290 290 290 290 290 290 290 291 292 292 293 294 296 297 298 299 300 301 301 300 299 298 299 299 301 301 302 302 300 298 297 296 296 296 296 296 295 295 295 296 296 295 295 295 296 296 296 296 295
286 286 286 286 287 287 287 287 287 288 287 287 287 288 288 289 289 289 289 290 290 289 289 290 290 290 290 291 292 293 294 295 296 298 299 300 300 300 300 299 298 298 297 297 298 299 300 300 298 296 294 294 295 295 295 295 295 295 295 295 296 295 295 294 295 295 295 295 295
286 286 286 286 287 287 287 287 287 287 287 287 287 287 288 288 288 289 289 290 289 289 289 290 290 290 291 291 292 293 294 295 296 298 299 299 300 299 299 298 298 298 297 297 297 297 297 297 296 295 294 294 294 295 295 295 295 295 295 295 295 295 294 294 294 294 294 294 294
285 286 286 286 286 287 287 287 286 286 286 287 287 287 288 288 289 289 289 289 289 289 290 290 290 290 291 291 292 293 294 295 297 298 299 299 299 299 299 299 298 298 298 298 298 298 297 296 295 294 294 293 294 294 294 295 295 295 295 295 294 294 293 293 293 294 294 293 293
285 285 285 286 286 286 286 286 286 286 286 286 287 287 288 288 289 289 289 289 289 289 290 290 291 291 291 292 293 294 295 296 297 298 299 299 299 299 299 299 298 298 298 298 298 298 297 296 295 295 294 294 293 293 293 294 294 294 294 294 293 293 293 293 293 293 293 292 292
285 285 285 285 286 286 286 286 286 286 286 286 287 287 287 288 289 289 289 289 289 290 290 290 291 292 292 293 294 295 296 297 298 299 299 299 299 299 298 298 298 297 297 297 297 296 296 295 295 295 294 293 293 292 293 293 293 293 292 292 292 292 292 293 293 293 292 292 291
284 284 285 285 285 286 286 286 286 286 286 286 286 287 287 288 288 289 289 289 290 290 290 290 291 292 293 294 295 296 296 296 298 299 299 299 299 299 298 298 298 297 296 296 296 296 295 295 294 294 293 293 292 291 291 292 292 291 291 291 292 292 292 292 292 292 292 292 292
284 284 284 285 285 285 285 286 286 285 285 285 286 286 287 287 288 289 289 289 289 290 290 290 291 292 293 294 295 295 295 295 296 297 299 299 299 299 299 298 298 297 297 296 296 295 295 295 295 294 293 292 291 291 291 291 291 290 290 290 291 291 292 292 292 292 292 292 292
283 284 284 284 285 285 286 286 285 285 285 285 286 286 287 287 288 288 289 289 289 289 289 289 290 291 291 292 293 293 293 292 293 294 296 297 298 298 298 298 297 297 297 296 296 295 295 294 294 294 293 292 292 291 291 291 290 290 290 290 290 290 291 291 291 291 291 291 291
283 283 284 284 285 285 286 286 286 285 285 285 285 286 286 287 288 288 288 288 288 288 288 288 289 289 289 290 291 291 292 291 290 291 292 293 294 294 294 294 294 294 294 294 294 294 293 293 293 293 293 292 292 291 291 290 290 290 290 290 290 290 290 290 290 290 291 291 291
283 283 284 284 284 285 286 286 285 285 285 285 285 285 286 287 288 288 287 287 288 288 288 287 287 288 288 289 289 290 290 290 290 289 290 290 290 290 290 291 291 291 291 291 291 291 292 292 292 292 292 291 291 291 290 290 290 290 290 290 290 290 290 290 290 290 290 290 290
283 283 284 284 284 285 285 286 285 285 285 285 285 285 286 287 287 287 287 287 287 287 287 287 287 287 287 287 288 289 289 290 289 289 289 289 289 289 289 289 289 289 289 289 289 289 289 289 290 290 290 290 290 290 290 290 289 289 289 289 289 289 289 289 289 290 290 290 290
283 283 284 284 284 285 285 285 285 284 284 285 285 285 285 286 287 287 287 287 287 287 286 286 286 286 286 286 287 287 288 289 289 289 289 289 289 289 289 289 289 289 288 288 288 288 288 288 288 288 288 288 288 288 288 288 288 288 288 288 288 288 288 289 289 289 289 290 290
283 283 283 283 284 284 285 284 284 284 284 284 284 284 285 286 287 287 286 286 286 286 286 286 286 286 285 286 286 286 287 287 288 289 289 290 289 289 289 289 289 289 288 288 288 287 287 286 286 286 286 286 286 286 286 286 286 286 286 286 286 287 287 287 288 288 289 289 290
282 282 283 283 283 283 283 283 283 283 283 284 284 284 285 285 286 286 286 286 286 285 285 286 286 285 285 285 285 285 285 286 286 287 288 289 290 290 290 290 290 289 290 290 290 289 288 287 286 286 286 286 286 286 285 285 285 285 285 285 285 286 286 286 286 287 287 288 288
282 282 282 281 282 282 282 282 282 282 283 283 284 284 284 285 286 286 286 285 285 285 285 285 285 285 285 285 285 285 285 285 285 285 286 287 289 290 291 291 291 291 291 291 293 293 292 290 288 286 286 285 285 286 285 285 285 285 285 285 285 285 285 285 285 285 286 286 287
281 281 281 281 281 281 281 281 281 281 282 283 283 283 284 284 285 285 285 285 285 285 285 285 285 285 285 284 284 284 284 284 284 284 285 285 286 288 289 291 291 291 292 292 293 293 293 292 291 289 287 285 285 285 285 285 285 285 285 285 285 285 285 285 285 285 285 286 286
280 280 280 280 280 280 280 280 280 281 281 282 282 283 283 284 284 285 285 285 285 285 285 285 285 285 285 284 283 283 283 283 284 284 284 284 285 286 287 288 290 291 293 294 293 293 293 292 292 291 289 286 286 285 285 285 285 285 285 285 285 284 284 284 284 284 285 285 285
279 279 279 279 279 279 280 280 280 280 280 281 282 282 283 283 284 284 285 285 285 284 284 284 285 285 284 284 283 283 282 282 283 283 283 284 284 284 285 286 288 291 293 294 294 293 293 292 292 291 290 287 286 285 285 285 285 284 284 284 284 283 283 283 284 284 284 284 285
279 279 279 279 279 279 279 279 279 279 280 280 281 282 283 283 283 283 284 285 284 284 284 284 284 284 284 283 282 282 282 282 282 282 282 283 283 284 284 285 287 290 292 294 294 293 293 292 292 291 290 288 286 285 285 284 284 284 283 283 283 283 282 283 283 283 283 284 284
278 278 278 278 278 278 279 279 279 279 279 280 281 281 282 282 282 283 283 284 284 284 284 284 284 284 284 283 282 282 282 282 282 282 282 282 282 283 283 284 285 288 292 294 294 293 293 292 292 291 290 289 286 285 284 284 283 283 282 282 282 282 282 282 282 282 283 283 284
278 278 278 278 278 278 278 278 279 279 279 279 280 280 281 281 282 282 282 283 285 285 285 285 284 284 283 283 283 282 282 281 281 282 281 281 282 282 282 283 284 287 290 293 293 293 293 292 292 291 290 289 286 285 284 283 283 282 282 282 282 282 282 282 282 282 282 283 283
278 277 278 277 277 278 278 278 279 279 279 279 279 280 280 281 281 282 282 283 285 285 285 284 284 283 283 283 283 282 282 282 281 281 282 281 281 281 282 282 283 286 289 292 292 293 292 292 291 290 290 289 286 284 283 283 283 282 282 281 282 282 282 282 282 282 282 282 282
277 277 277 277 277 277 278 278 278 278 278 278 279 279 279 280 281 281 282 283 284 284 284 284 283 283 283 283 283 282 282 282 282 282 282 282 281 281 281 281 282 284 288 290 291 292 292 291 290 290 289 288 286 284 283 283 282 282 282 282 282 282 282 282 281 281 281 282 282
276 276 276 276 276 277 277 278 278 278 278 278 278 278 279 280 280 281 282 283 283 284 284 284 284 283 283 283 283 283 283 283 282 282 282 281 281 281 280 280 281 284 287 289 290 291 291 290 290 289 288 287 285 283 283 282 282 282 282 282 282 282 282 282 281 281 281 281 282
276 276 276 276 276 276 276 277 277 277 277 277 277 278 278 279 280 280 281 282 282 283 283 285 284 284 283 283 283 283 283 283 282 282 282 282 281 280 280 280 280 283 287 289 290 291 290 290 289 288 287 286 284 283 282 282 282 282 282 282 282 282 282 282 282 282 281 282 282
276 276 275 275 276 276 276 276 276 276 276 276 277 277 278 279 279 280 281 282 282 282 282 284 284 284 283 283 283 283 283 282 282 282 282 282 282 280 280 280 280 283 286 289 291 291 290 290 289 287 286 284 282 282 282 282 282 282 281 281 281 281 281 281 281 281 281 282 283
276 275 275 275 275 275 275 275 275 275 275 276 276 277 277 278 279 280 281 281 281 280 281 283 284 283 283 283 282 282 283 283 282 282 282 282 282 281 280 280 280 282 285 289 291 291 290 289 288 287 285 282 281 281 281 281 281 281 281 281 280 280 280 280 280 280 281 282 284
276 275 275 275 275 275 275 275 275 274 275 275 276 276 277 278 278 279 280 281 280 280 280 281 282 283 283 283 283 282 283 283 283 283 282 282 282 281 281 280 280 281 284 289 290 290 289 288 288 286 284 281 280 280 280 280 280 280 280 280 279 279 279 279 279 279 280 281 285
275 275 275 275 275 275 275 274 274 274 274 275 275 276 276 277 278 279 280 280 280 280 279 280 281 282 283 283 283 282 282 282 282 283 282 282 282 282 282 280 280 281 284 288 289 289 288 288 287 286 284 282 280 279 279 279 279 279 279 279 279 278 278 278 278 278 279 280 284
275 275 275 275 275 275 274 274 274 274 274 274 275 275 276 276 277 278 279 280 279 279 279 279 280 281 281 282 282 281 281 281 281 282 282 282 282 283 283 281 280 281 283 287 289 289 288 287 287 286 284 281 280 279 279 279 279 278 278 278 278 278 278 278 278 278 278 278 281
275 275 275 275 275 274 274 274 274 274 274 274 274 275 276 276 277 277 278 278 279 279 279 279 279 280 280 281 281 280 280 280 280 281 282 282 282 282 281 280 280 281 282 285 288 289 288 287 286 286 284 281 280 279 279 279 278 278 277 277 278 277 277 277 277 277 277 277 278
Wind_Speed
12 12 12 12 11 10 10 10 10 10 10 10 10 11 11 11 11 11 11 10 10 11 11 11 12 13 14 17 18 18 18 18 18 19 20 20 19 18 16 14 12 12 11 11 10 9 8 9 6 4 4 4 4 4 3 4 5 5 5 4 3 3 3 4 3 2 2 2 2
14 13 13 13 12 11 10 10 10 10 10 10 10 10 11 11 11 11 11 11 11 11 12 12 13 15 17 19 18 18 18 18 19 19 20 19 18 17 16 14 12 11 11 11 10 8 7 9 6 3 3 4 4 4 4 4 5 6 6 6 4 3 4 4 3 2 2 2 1
14 13 13 12 12 11 11 10 11 12 12 11 11 11 11 11 11 11 11 11 12 12 12 12 13 16 18 19 18 17 17 17 18 19 19 18 17 17 16 14 13 11 10 9 9 8 8 10 6 3 4 4 4 4 4 4 5 6 7 6 5 4 5 5 3 3 2 2 2
14 13 13 13 13 13 13 11 13 13 13 12 12 11 11 11 11 11 12 13 13 13 13 13 14 15 17 18 18 18 18 18 19 19 19 18 17 17 16 15 14 12 11 10 10 9 10 12 8 3 4 5 5 5 4 4 5 5 5 4 4 5 5 5 4 4 3 3 2
14 13 13 13 14 14 13 13 14 14 13 12 11 11 11 11 11 11 12 13 13 13 14 16 16 16 16 17 19 19 19 19 20 18 17 18 17 16 16 15 14 12 11 11 11 10 10 13 9 4 3 5 5 4 4 5 5 5 4 3 4 4 5 5 4 4 4 3 3
14 14 13 13 14 14 13 13 15 15 14 12 13 13 13 11 12 13 14 14 15 16 18 19 17 17 17 18 19 19 19 19 18 17 18 19 18 16 15 14 14 13 12 11 12 11 10 11 10 5 1 4 4 4 4 6 6 6 5 4 4 4 4 5 4 4 5 5 5
14 15 14 14 15 15 15 15 15 14 14 13 14 15 15 15 15 16 17 16 16 16 16 16 16 16 17 18 18 19 19 18 18 18 18 18 18 17 15 13 13 13 13 13 12 11 10 9 9 6 3 3 4 5 5 6 6 6 5 5 4 4 4 5 4 5 6 7 7
14 15 15 15 15 16 16 17 16 15 14 13 14 16 18 18 19 19 18 17 15 15 15 14 16 18 19 19 19 19 19 19 19 18 17 17 18 17 15 12 12 12 13 13 12 11 9 8 7 6 5 2 3 4 6 8 7 6 6 5 4 4 4 5 4 5 6 8 7
14 14 15 15 15 16 16 17 16 16 15 15 16 17 18 19 19 19 18 16 15 15 15 15 17 19 20 20 20 20 19 19 19 18 17 16 17 16 13 10 10 11 12 12 12 11 11 8 7 7 7 5 3 4 7 8 8 7 6 5 4 4 4 5 5 6 7 7 7
15 15 15 15 15 16 16 16 16 16 16 16 17 18 18 19 19 18 16 15 15 16 16 16 18 19 20 20 19 19 19 18 18 18 17 16 16 14 12 8 7 8 9 10 10 11 11 8 7 7 7 5 3 5 7 8 8 7 5 3 4 4 4 4 6 6 6 6 7
16 16 15 15 16 16 16 16 15 15 15 16 17 18 18 18 18 18 17 16 17 17 18 18 18 18 18 18 18 18 18 18 17 17 17 16 14 12 9 6 4 5 6 7 7 8 9 7 7 7 6 2 3 5 7 8 8 7 6 4 4 5 5 5 5 5 5 6 7
16 16 15 15 16 16 16 15 14 15 15 17 17 18 17 16 17 18 18 18 18 18 18 17 18 18 17 16 16 17 18 19 19 18 16 14 12 9 6 3 1 3 4 5 3 3 4 5 6 6 3 2 3 5 6 8 8 8 7 5 6 6 6 6 6 5 5 5 7
16 16 15 15 17 17 16 15 14 14 15 17 18 17 16 16 17 18 18 18 18 17 16 16 17 17 16 16 16 17 17 19 19 17 14 10 9 6 4 1 1 2 3 4 3 2 0 2 4 3 2 4 4 5 6 7 8 8 7 7 7 6 6 6 6 5 5 6 7
16 16 16 17 17 16 15 15 14 14 15 17 17 17 16 16 17 17 17 17 17 16 16 15 15 14 14 16 16 17 18 19 19 16 12 7 5 3 2 2 2 2 3 3 3 3 3 1 0 1 3 5 5 6 6 7 7 7 7 7 7 7 6 6 6 6 7 7 8
16 16 17 17 17 16 15 15 13 13 15 16 17 16 16 15 16 16 16 17 17 16 14 14 13 13 15 16 17 17 18 19 18 13 9 6 4 2 1 3 3 2 2 2 3 4 4 4 4 4 4 5 6 7 7 7 7 7 7 7 7 6 6 6 6 7 7 8 8
17 17 17 17 17 17 15 14 13 13 15 16 17 17 16 15 14 15 16 17 16 14 14 14 14 13 14 14 15 15 16 18 16 11 8 7 5 2 1 3 3 3 2 2 3 4 4 5 5 5 6 6 7 7 7 7 8 8 8 7 7 6 6 6 6 7 8 8 8
17 17 17 18 18 17 16 15 14 14 15 17 18 17 16 15 14 15 16 17 15 15 15 16 15 14 13 14 13 14 15 17 16 11 6 5 6 4 1 3 3 3 3 4 4 5 5 5 5 5 6 6 7 7 8 8 8 8 8 8 8 7 7 6 7 8 9 9 8
17 17 17 17 18 17 17 16 16 17 17 18 18 17 16 15 15 15 16 17 16 17 17 17 16 15 15 15 14 13 13 15 17 16 12 8 6 5 4 6 6 6 5 6 6 6 6 6 6 6 6 6 7 7 8 9 9 9 9 9 8 8 7 7 8 8 9 9 8
17 17 17 17 17 17 16 16 17 17 17 17 17 18 17 17 16 16 16 17 17 17 17 17 16 16 16 16 15 13 13 13 16 18 18 16 15 13 13 12 11 10 10 10 9 9 8 8 7 7 7 7 7 8 9 9 9 9 9 9 8 8 8 8 9 9 9 9 9
17 17 16 16 17 16 16 15 16 16 16 16 18 18 19 18 17 16 17 17 17 17 17 16 16 16 16 17 16 15 13 12 14 15 16 17 17 17 16 15 14 14 13 13 12 12 11 11 11 10 10 10 10 10 10 10 9 9 9 8 8 8 9 9 9 10 10 9 8
16 16 16 16 16 16 15 15 15 16 16 16 18 19 19 18 16 16 16 17 17 17 17 16 16 17 17 17 17 16 14 12 13 13 14 14 15 15 15 14 14 13 13 13 13 14 14 14 13 13 13 12 12 12 11 10 10 9 9 8 8 9 9 10 10 10 9 9 8
15 15 15 15 15 15 15 15 15 15 16 16 17 18 19 18 16 15 16 16 16 16 16 15 16 16 17 17 17 16 15 13 13 13 13 12 12 13 13 12 13 13 13 13 13 14 14 15 15 14 14 13 14 14 13 12 11 10 10 9 10 10 10 10 10 9 9 8 7
15 15 15 14 15 16 16 15 15 15 16 16 17 18 18 18 16 15 15 15 15 15 15 14 14 15 16 16 17 17 17 16 16 15 14 12 11 11 11 11 12 13 13 12 12 12 12 13 13 14 13 13 14 14 13 12 11 10 10 10 10 10 10 9 9 8 8 8 8
16 15 14 13 15 15 15 15 15 15 16 16 16 17 18 18 16 15 14 14 14 15 14 13 13 14 15 15 16 17 17 18 18 18 17 15 12 11 9 9 10 11 11 10 12 13 12 11 11 11 12 12 12 12 12 11 10 10 9 9 9 9 9 8 8 8 8 9 8
16 15 14 14 15 15 15 15 15 15 15 16 16 16 17 18 16 14 13 14 14 14 14 13 13 13 13 14 15 16 17 17 18 18 18 17 16 13 10 8 8 9 10 12 18 19 18 15 12 10 10 10 10 10 10 10 10 10 9 9 8 8 7 7 8 8 9 9 9
15 15 14 14 14 15 15 14 14 15 15 16 16 16 16 17 16 14 13 13 13 13 13 12 12 12 12 12 14 15 15 15 16 17 17 17 17 16 13 9 8 8 10 14 19 21 21 19 17 13 10 8 8 8 8 9 9 9 9 9 8 7 7 8 8 9 9 8 9
15 15 14 14 15 15 14 14 14 14 15 16 16 16 16 16 15 15 14 12 12 12 11 10 10 11 11 11 13 14 15 13 14 15 15 16 16 16 15 12 9 8 10 16 18 19 19 19 18 15 12 8 8 8 8 7 8 9 8 8 8 8 8 8 9 9 9 9 9
16 16 15 15 15 15 15 14 14 15 15 16 16 15 15 15 16 16 14 12 11 10 10 9 9 8 8 9 11 13 14 13 13 13 13 14 15 15 15 13 12 12 14 17 17 17 17 17 17 16 13 10 8 7 7 7 7 7 7 7 7 8 8 8 8 8 9 9 8
17 16 16 16 16 16 15 15 15 15 15 15 15 15 15 15 16 16 15 13 10 9 8 8 7 7 7 9 10 11 12 13 12 12 12 13 14 14 13 13 13 15 17 19 16 15 16 16 16 15 14 12 8 6 6 6 6 6 6 6 6 7 8 8 7 7 8 8 8
17 16 16 16 16 16 16 15 15 15 15 14 14 14 14 14 15 16 16 15 11 9 7 7 7 8 8 9 9 10 10 11 11 11 12 13 13 13 13 13 12 14 16 19 17 15 14 15 15 15 14 13 9 7 5 5 5 5 5 5 6 7 7 7 8 8 8 7 7
16 16 16 16 16 16 16 15 15 15 14 14 14 14 14 14 15 16 16 15 12 9 7 7 8 8 9 8 9 9 9 10 10 11 11 12 13 12 12 12 12 13 15 19 16 14 13 14 15 14 14 13 9 7 5 5 6 5 5 6 7 7 7 7 8 8 8 8 8
16 16 16 17 17 16 16 15 15 14 14 14 14 14 14 15 14 15 15 15 14 11 8 7 8 8 8 8 8 9 9 9 10 11 11 11 12 12 12 11 12 13 15 19 16 13 12 13 14 14 14 13 9 7 6 6 6 6 6 6 7 7 7 7 7 7 8 8 7
16 16 16 16 16 16 16 16 15 14 14 14 14 15 15 15 14 14 15 15 15 12 9 6 7 8 8 8 8 8 9 9 10 10 11 11 11 11 11 10 10 12 16 19 16 12 10 13 14 14 14 13 9 7 6 6 5 5 5 6 6 7 7 7 7 7 7 7 7
15 16 16 16 16 16 16 16 15 15 15 15 15 15 15 15 14 14 14 15 15 13 10 6 6 7 7 7 8 8 8 9 9 9 10 10 10 11 11 10 8 12 18 21 18 10 8 13 14 15 14 12 8 6 6 6 5 5 5 6 6 7 7 8 7 7 7 7 6
15 16 16 15 15 15 15 16 15 15 16 16 16 16 15 14 14 13 14 14 15 14 11 7 6 6 6 7 7 8 8 9 8 9 9 9 9 10 11 10 10 14 20 23 18 8 7 14 15 15 13 11 7 5 5 6 5 6 6 6 7 8 8 8 8 7 7 6 6
15 15 15 15 15 15 15 15 16 16 16 16 16 16 15 14 13 12 12 14 14 14 13 9 6 6 6 6 7 7 8 8 8 8 9 9 9 9 10 10 11 15 20 24 17 5 10 15 15 14 12 8 6 5 5 5 5 5 6 7 7 8 8 9 8 8 7 6 6
15 15 15 15 14 14 14 15 15 16 16 16 16 16 15 14 13 12 12 13 13 14 14 12 9 7 7 7 6 6 7 7 7 8 8 9 8 8 9 10 11 14 19 23 14 9 14 15 15 13 11 7 5 4 4 4 4 5 6 6 7 7 7 7 7 8 8 7 7
15 14 14 14 14 14 14 14 15 16 16 16 15 15 14 14 12 12 12 13 12 12 13 13 12 10 9 8 7 7 7 7 7 8 8 8 8 8 8 9 10 13 16 21 15 13 15 15 14 12 9 6 4 4 4 4 4 4 5 5 5 6 6 6 6 6 8 10 11
15 14 14 14 14 13 13 13 14 15 15 15 15 15 14 14 13 12 12 12 11 11 11 12 12 12 11 11 9 8 8 7 7 7 7 7 8 9 10 9 9 11 14 19 14 13 13 13 12 11 9 6 4 3 3 4 4 4 4 4 4 5 5 5 5 5 6 9 13
15 14 14 14 13 12 12 13 13 14 14 14 14 14 14 14 13 13 12 11 10 10 10 10 11 12 12 12 10 9 8 8 7 7 6 7 8 10 11 10 9 10 12 17 15 12 11 11 11 10 8 6 4 3 3 3 4 4 4 3 3 4 4 4 4 5 5 7 10
14 14 14 14 13 12 11 12 13 13 13 13 14 13 13 13 13 13 12 11 11 11 10 10 11 11 12 11 10 9 9 8 7 7 7 8 8 10 11 9 8 9 10 14 15 13 10 10 10 9 7 5 3 3 3 3 4 4 4 3 3 3 3 4 4 4 4 5 6
Wind_Direction
345 345 343 340 338 336 333 329 327 326 325 324 320 318 316 314 312 310 309 309 308 307 307 306 305 305 306 307 308 307 307 305 304 303 303 303 303 302 299 291 287 288 293 298 296 289 274 253 230 189 147 141 137 133 130 131 124 116 109 104 104 103 103 103 105 111 119 124 124
346 345 342 340 338 335 331 327 327 326 325 322 319 317 315 314 312 311 310 309 309 308 307 305 304 304 304 305 305 304 303 302 302 301 300 299 299 299 297 292 287 286 288 294 297 292 275 254 231 190 137 131 124 122 124 132 123 115 110 110 112 110 102 91 87 88 92 91 77
345 343 341 339 337 335 331 328 327 326 325 321 319 318 316 315 313 311 310 309 308 306 305 303 302 302 302 301 300 300 299 298 298 298 297 296 295 295 294 292 286 280 276 279 287 291 284 270 245 194 132 123 119 119 123 128 119 113 112 115 115 109 100 92 91 91 87 76 65
343 341 339 337 335 333 331 329 328 327 325 322 320 318 316 315 313 311 309 308 306 304 303 302 301 300 299 298 297 296 295 295 295 295 295 294 293 292 292 291 286 278 268 262 271 281 284 278 260 221 130 118 116 120 125 126 114 110 110 115 110 104 99 96 91 86 81 78 72
340 338 337 335 334 332 331 330 329 328 326 323 320 318 316 315 313 311 309 308 306 305 303 301 300 298 297 297 296 296 296 295 295 295 294 293 292 290 289 288 285 279 270 259 261 268 275 275 259 239 131 116 118 122 125 118 107 102 100 101 100 100 99 97 91 85 79 70 63
337 336 336 335 333 333 332 331 330 327 325 322 320 318 317 315 313 311 309 308 305 304 303 301 300 299 299 300 300 299 298 297 295 293 292 291 289 287 285 284 284 281 275 263 258 260 266 271 258 252 175 115 113 114 114 108 102 100 99 95 95 95 95 96 94 88 79 67 56
336 336 336 335 334 334 333 332 329 327 324 321 319 318 317 314 312 310 309 306 305 304 304 303 303 303 303 303 302 300 298 296 292 290 287 286 285 282 280 280 283 282 277 267 258 255 259 265 263 266 266 131 119 116 114 108 106 105 105 105 102 98 95 96 94 88 80 71 61
337 337 336 335 335 334 333 331 329 326 324 322 321 319 317 314 313 311 309 307 306 305 304 303 303 303 302 301 299 298 296 293 290 287 284 281 280 278 276 275 280 281 277 269 257 250 248 253 262 268 264 207 140 126 121 115 111 112 115 119 115 108 103 102 97 91 86 80 72
338 337 335 335 335 334 332 330 328 326 324 322 320 319 317 315 314 312 311 308 306 305 304 302 302 301 299 298 296 296 295 293 290 286 282 278 276 274 272 271 276 278 275 266 253 244 240 241 252 259 256 237 176 133 123 118 113 113 116 122 122 119 116 112 105 99 94 89 81
337 336 335 335 335 333 331 329 328 326 324 322 321 319 317 316 315 314 312 308 307 305 304 301 300 299 298 296 295 295 294 293 290 286 282 276 273 270 268 268 276 279 275 262 246 237 233 233 242 251 252 237 174 127 116 111 107 104 103 105 105 102 100 98 98 97 93 89 81
336 336 335 335 334 333 331 331 329 328 326 324 322 320 318 317 316 314 312 310 308 305 302 301 300 299 297 296 296 295 295 294 291 286 280 274 269 265 262 265 283 291 288 273 248 234 227 226 232 238 238 215 136 114 107 103 100 97 93 85 83 81 78 74 81 86 88 88 80
336 335 335 335 334 333 333 332 331 329 328 326 324 322 320 318 317 316 314 312 308 305 302 302 301 299 298 296 296 295 295 294 290 285 278 269 263 257 250 249 304 322 315 307 283 243 219 216 220 219 210 124 104 102 104 104 100 97 92 84 80 78 77 73 76 80 87 89 83
336 336 336 336 335 334 334 334 332 331 329 328 326 324 322 320 319 318 317 314 310 307 305 304 302 299 297 295 295 295 295 294 290 284 273 261 255 247 233 174 48 4 340 329 334 343 252 203 209 194 143 91 82 87 95 102 101 101 97 92 85 82 83 83 83 84 84 84 83
337 337 338 337 336 335 335 336 334 332 330 328 326 325 324 322 322 321 320 316 313 310 307 305 302 299 296 295 295 296 297 296 291 282 267 248 246 240 216 101 66 29 356 342 355 9 18 355 290 97 88 82 74 73 77 88 95 97 96 96 91 89 88 91 91 90 87 84 83
339 339 339 338 337 337 336 337 335 333 331 328 327 326 326 324 324 324 324 321 318 314 311 309 306 302 299 297 299 301 304 305 296 281 258 234 236 239 69 74 69 55 24 9 15 16 14 4 8 29 52 66 67 67 69 75 82 85 86 88 89 89 89 91 93 92 91 89 84
341 340 340 339 338 338 338 338 337 335 332 330 329 328 327 326 326 327 328 327 325 322 320 319 316 312 309 308 311 317 321 322 312 291 255 230 232 230 85 73 74 73 67 57 46 35 27 20 24 33 45 56 62 66 69 72 74 77 78 78 80 81 83 85 88 89 87 84 81
341 341 340 340 339 338 337 339 339 337 334 331 331 330 328 328 328 331 333 333 332 332 332 331 330 328 328 328 332 338 342 343 338 328 299 254 252 252 263 68 70 73 76 76 65 56 47 41 44 49 54 60 66 70 72 74 75 76 76 75 76 76 77 79 82 83 82 80 77
341 340 339 339 338 336 336 338 339 338 335 332 331 330 330 329 332 334 336 337 338 338 339 339 341 341 342 343 346 351 356 358 358 358 357 353 343 345 7 39 45 50 56 62 61 58 55 53 56 59 62 67 71 74 75 75 76 77 78 77 77 77 76 75 76 78 80 80 77
341 339 338 338 337 335 335 337 339 338 335 333 332 332 331 332 335 338 339 340 342 342 343 344 347 348 348 349 352 357 2 5 6 9 12 16 21 26 29 33 35 38 43 47 48 49 50 52 54 57 59 61 65 68 71 71 73 75 77 79 78 78 77 75 74 75 76 77 75
341 339 337 337 336 335 335 338 339 337 335 334 334 334 334 334 338 341 343 343 344 345 346 349 352 353 353 354 357 0 4 7 10 13 16 21 26 30 32 33 35 38 41 44 44 44 44 45 48 50 52 54 56 60 63 65 67 69 72 74 74 75 74 73 72 72 72 73 73
340 338 337 336 336 336 337 339 339 338 336 335 336 336 336 336 340 344 346 345 345 347 349 353 356 358 358 359 1 3 6 9 13 16 19 23 27 30 33 35 37 39 42 44 45 45 45 45 45 46 48 50 51 52 54 56 57 58 60 62 64 65 67 67 68 69 70 71 71
340 339 337 336 335 336 338 341 340 338 337 337 338 338 337 337 341 345 347 347 348 349 352 355 358 1 2 3 4 6 8 11 14 17 21 25 29 32 34 37 40 43 45 45 46 46 47 47 46 46 46 48 47 47 48 47 47 47 48 49 52 54 56 58 61 64 66 67 65
340 339 337 336 336 337 339 342 340 339 339 339 339 339 338 337 340 344 348 349 350 352 353 355 359 2 4 5 7 9 11 13 15 16 19 23 30 35 39 41 44 46 47 47 47 47 47 47 46 45 45 47 46 45 44 42 40 38 38 39 41 43 46 48 51 55 57 56 56
340 339 338 336 337 338 340 341 341 340 340 339 339 338 338 338 338 342 347 350 352 353 353 355 358 1 4 7 9 12 14 16 16 16 16 17 22 29 37 45 48 49 50 51 51 52 52 50 47 45 45 45 45 44 42 39 36 34 32 32 34 36 37 40 43 46 48 48 47
339 338 337 336 337 339 340 342 342 341 340 339 338 338 338 338 338 340 345 350 352 353 353 354 357 0 4 7 10 13 15 17 17 17 16 16 16 18 25 39 48 52 55 57 57 58 58 57 54 50 46 45 45 44 43 40 36 33 31 29 28 29 30 32 35 38 41 43 41
339 338 337 337 337 339 341 342 341 340 339 338 338 338 338 339 338 338 342 347 350 351 352 354 356 359 4 7 10 13 15 16 16 17 17 17 16 15 16 21 33 46 56 59 59 59 59 60 59 56 52 45 45 44 42 39 36 33 30 27 24 23 23 25 26 29 32 35 36
340 339 338 337 339 341 342 342 341 340 339 339 338 338 337 338 338 338 339 343 347 349 352 354 355 358 2 6 10 12 14 14 14 15 16 17 16 15 14 15 19 31 48 58 62 63 63 62 61 60 56 50 46 44 43 41 36 33 30 26 23 21 21 22 22 23 25 27 30
341 340 339 340 341 343 343 342 342 341 340 339 337 336 336 338 339 339 338 339 344 348 352 354 355 357 0 6 10 11 12 12 12 13 14 16 16 15 13 10 12 21 33 45 57 64 67 67 65 63 60 55 51 48 47 45 41 36 32 28 25 23 22 22 21 20 21 21 25
341 341 341 342 343 344 344 344 343 342 340 338 336 335 336 338 341 340 339 336 341 348 352 353 353 357 3 7 8 9 11 12 11 11 11 13 14 14 11 8 6 11 19 29 42 57 68 72 70 69 66 62 57 51 49 48 45 41 37 32 28 26 25 25 23 22 22 22 24
342 342 343 343 344 345 345 344 343 342 340 338 336 336 337 340 342 342 340 336 338 343 350 350 353 359 4 7 8 9 10 10 10 10 11 10 10 9 7 5 1 2 7 17 27 43 60 73 74 74 72 69 65 60 56 54 51 47 42 37 32 30 29 29 28 27 25 24 25
342 343 344 345 345 345 344 343 342 341 340 339 338 338 340 343 343 342 340 337 336 338 344 350 355 1 5 7 8 9 9 9 9 10 10 8 6 3 1 0 357 355 358 6 16 31 51 69 75 77 77 74 69 64 60 59 57 54 49 43 38 35 33 33 31 29 27 27 27
342 344 345 346 345 344 343 342 342 341 341 340 340 340 342 344 344 342 340 339 337 338 341 353 359 3 6 7 8 8 9 9 9 8 7 6 2 359 357 357 353 350 351 356 5 22 48 69 76 78 78 76 72 67 63 63 62 59 55 51 46 42 39 36 33 30 28 28 28
341 343 345 346 345 344 342 342 342 342 342 343 343 343 343 344 344 343 342 342 341 340 343 0 3 5 6 6 6 6 7 8 6 5 4 3 360 358 356 355 350 347 347 348 353 11 50 77 80 81 80 77 72 66 63 64 65 63 59 55 50 46 42 39 34 30 27 27 28
340 342 343 344 343 343 342 342 343 343 344 345 344 344 344 344 344 344 344 344 343 343 347 3 7 7 6 5 4 3 4 4 2 360 358 357 357 356 355 354 348 346 345 342 342 358 60 88 87 85 83 79 74 69 65 66 66 64 60 55 51 46 41 36 31 26 23 25 29
338 340 341 342 342 342 343 343 344 345 345 346 345 344 343 343 344 344 344 345 345 345 346 355 5 8 6 4 2 1 1 359 357 355 354 353 355 355 354 353 348 347 345 340 336 351 89 98 92 89 85 81 77 72 69 69 66 62 56 53 48 44 39 34 27 20 16 18 30
337 338 339 339 340 341 343 344 345 346 346 346 345 344 343 341 342 343 345 347 346 345 344 345 358 6 6 2 359 358 356 353 351 349 349 348 351 352 353 352 350 349 346 340 341 21 108 100 93 89 86 82 78 74 72 70 65 59 54 52 48 43 38 34 26 18 12 9 31
336 337 337 337 338 340 343 345 346 347 346 345 344 342 341 340 340 342 345 349 347 344 343 343 351 357 360 358 354 350 346 345 344 344 343 343 344 348 352 353 352 350 348 347 5 64 100 91 86 83 81 77 72 71 72 71 67 60 55 52 49 44 39 35 26 18 12 8 29
335 336 336 336 337 339 343 346 347 347 346 344 342 341 340 340 340 342 346 349 347 344 343 344 346 349 350 350 348 343 339 338 340 340 339 338 339 346 353 353 352 351 353 357 24 64 85 81 80 79 77 71 66 66 68 71 69 65 60 56 51 45 40 36 27 18 13 12 23
335 336 336 335 336 339 343 347 348 347 345 342 341 341 341 341 341 342 345 347 344 343 342 344 346 346 346 346 345 341 338 337 339 339 340 338 341 350 357 355 350 351 356 2 24 54 75 77 78 79 78 74 68 67 70 74 72 69 64 60 56 49 43 38 29 21 14 12 17
335 336 336 336 336 338 342 346 347 346 343 342 341 341 340 340 339 340 342 344 343 343 343 343 344 345 345 347 345 344 342 343 346 349 351 351 352 357 360 356 349 350 356 2 16 39 64 73 75 77 78 75 71 72 77 80 78 73 68 63 60 54 47 40 34 27 19 14 12
335 336 336 336 336 338 342 345 345 345 343 341 341 340 339 339 338 338 339 341 344 345 344 342 343 344 345 347 347 348 350 352 357 3 8 8 4 3 1 356 350 350 356 1 12 26 49 67 70 75 78 81 77 79 87 90 89 85 80 72 65 60 52 42 37 31 24 16 10